EN

Hourly Weather Toowoomba

Today, 18 May, Tuesday

Time Temperature Precipitation Wind Pressure Humidity
00:00 +9°C° 0 mm 1 mps 730 mmHg 69%
01:00 +8°C° 0 mm 1 mps 730 mmHg 74%
02:00 +8°C° 0 mm 1 mps 730 mmHg 77%
03:00 +8°C° 0 mm 1 mps 730 mmHg 80%
04:00 +8°C° 0 mm 1 mps 730 mmHg 79%
05:00 +8°C° 0 mm 1 mps 730 mmHg 81%
06:00 +9°C° 0 mm 1 mps 731 mmHg 82%
07:00 +9°C° 0 mm 1 mps 731 mmHg 84%
08:00 +12°C° 0 mm 2 mps 731 mmHg 73%
09:00 +14°C° 0 mm 3 mps 731 mmHg 62%
10:00 +17°C° 0 mm 5 mps 732 mmHg 52%
11:00 +19°C° 0 mm 4 mps 731 mmHg 50%
12:00 +19°C° 0 mm 4 mps 731 mmHg 48%
13:00 +20°C° 0 mm 4 mps 730 mmHg 46%
14:00 +14°C° 0 mm 3 mps 731 mmHg 69%
15:00 +17°C° 0 mm 3 mps 730 mmHg 60%
16:00 +19°C° 0 mm 4 mps 730 mmHg 51%
17:00 +17°C° 0 mm 3 mps 730 mmHg 62%
18:00 +15°C° 0 mm 2 mps 731 mmHg 72%
19:00 +13°C° 0 mm 2 mps 731 mmHg 83%
20:00 +12°C° 0 mm 2 mps 732 mmHg 85%
21:00 +11°C° 0 mm 1 mps 732 mmHg 87%
22:00 +11°C° 0 mm 1 mps 732 mmHg 89%
23:00 +10°C° 0 mm 1 mps 732 mmHg 89%

Tomorrow, 19 May, Wednesday

Time Temperature Precipitation Wind Pressure Humidity
00:00 +10°C° 0 mm 1 mps 732 mmHg 88%
01:00 +10°C° 0 mm 1 mps 731 mmHg 88%
02:00 +10°C° 0 mm 1 mps 731 mmHg 87%
03:00 +10°C° 0 mm 1 mps 731 mmHg 86%
04:00 +10°C° 0 mm 1 mps 731 mmHg 86%
05:00 +10°C° 0 mm 1 mps 731 mmHg 84%
06:00 +10°C° 0 mm 1 mps 732 mmHg 83%
07:00 +10°C° 0 mm 1 mps 732 mmHg 81%
08:00 +13°C° 0 mm 2 mps 732 mmHg 70%
09:00 +16°C° 0 mm 3 mps 733 mmHg 60%
10:00 +18°C° 0 mm 4 mps 733 mmHg 49%
11:00 +19°C° 0 mm 4 mps 732 mmHg 47%
12:00 +20°C° 0 mm 4 mps 732 mmHg 46%
13:00 +20°C° 0 mm 4 mps 731 mmHg 44%
14:00 +20°C° 0 mm 4 mps 731 mmHg 46%
15:00 +20°C° 0 mm 4 mps 731 mmHg 47%
16:00 +19°C° 0 mm 3 mps 731 mmHg 49%
17:00 +17°C° 0 mm 3 mps 731 mmHg 62%
18:00 +14°C° 0 mm 3 mps 731 mmHg 75%
19:00 +13°C° 0 mm 2 mps 732 mmHg 88%
20:00 +12°C° 0 mm 2 mps 732 mmHg 88%
21:00 +12°C° 0 mm 2 mps 732 mmHg 87%
22:00 +12°C° 0 mm 2 mps 732 mmHg 87%
23:00 +12°C° 0 mm 1 mps 731 mmHg 88%

Day after tomorrow, 20 May, Thursday

Time Temperature Precipitation Wind Pressure Humidity
00:00 +11°C° 0 mm 1 mps 731 mmHg 89%
01:00 +11°C° 0 mm 1 mps 731 mmHg 90%
02:00 +11°C° 0 mm 1 mps 731 mmHg 88%
03:00 +11°C° 0 mm 1 mps 731 mmHg 86%
04:00 +11°C° 0 mm 1 mps 730 mmHg 84%
05:00 +12°C° 0 mm 1 mps 731 mmHg 82%
06:00 +12°C° 0 mm 1 mps 731 mmHg 79%
07:00 +13°C° 0 mm 1 mps 731 mmHg 76%
08:00 +15°C° 0 mm 2 mps 731 mmHg 68%
09:00 +17°C° 0 mm 3 mps 732 mmHg 60%
10:00 +19°C° 0 mm 4 mps 732 mmHg 52%
11:00 +20°C° 0 mm 3 mps 731 mmHg 47%
12:00 +21°C° 0 mm 3 mps 731 mmHg 43%
13:00 +21°C° 0 mm 3 mps 730 mmHg 39%
14:00 +21°C° 0 mm 3 mps 730 mmHg 41%
15:00 +20°C° 0 mm 2 mps 730 mmHg 44%
16:00 +20°C° 0 mm 2 mps 730 mmHg 46%
17:00 +18°C° 0 mm 2 mps 730 mmHg 57%
18:00 +16°C° 0 mm 1 mps 730 mmHg 67%
19:00 +13°C° 0 mm 1 mps 730 mmHg 78%
20:00 +13°C° 0 mm 1 mps 730 mmHg 81%
21:00 +12°C° 0 mm 1 mps 731 mmHg 84%
22:00 +12°C° 0 mm 1 mps 731 mmHg 87%
23:00 +11°C° 0 mm 1 mps 731 mmHg 88%

21 May, Friday

Time Temperature Precipitation Wind Pressure Humidity
00:00 +11°C° 0 mm 1 mps 731 mmHg 89%
01:00 +11°C° 0 mm 1 mps 730 mmHg 89%
02:00 +11°C° 0 mm 1 mps 730 mmHg 89%
03:00 +10°C° 0 mm 1 mps 730 mmHg 90%
04:00 +10°C° 0 mm 1 mps 730 mmHg 90%
05:00 +10°C° 0 mm 1 mps 730 mmHg 89%
06:00 +10°C° 0 mm 1 mps 730 mmHg 87%
07:00 +10°C° 0 mm 1 mps 730 mmHg 86%
08:00 +13°C° 0 mm 2 mps 731 mmHg 74%
09:00 +14°C° 0 mm 3 mps 731 mmHg 62%
10:00 +18°C° 0 mm 4 mps 731 mmHg 50%
11:00 +19°C° 0 mm 4 mps 731 mmHg 47%
12:00 +20°C° 0 mm 4 mps 730 mmHg 43%
13:00 +21°C° 0 mm 4 mps 730 mmHg 40%
14:00 +20°C° 0 mm 4 mps 729 mmHg 42%
15:00 +19°C° 0 mm 4 mps 729 mmHg 45%
16:00 +19°C° 0 mm 4 mps 729 mmHg 48%
17:00 +17°C° 0 mm 4 mps 729 mmHg 59%
18:00 +14°C° 0 mm 3 mps 730 mmHg 70%
19:00 +13°C° 0 mm 2 mps 730 mmHg 81%
20:00 +12°C° 0 mm 2 mps 730 mmHg 85%
21:00 +12°C° 0 mm 2 mps 730 mmHg 88%
22:00 +10°C° 0 mm 2 mps 730 mmHg 91%
23:00 +10°C° 0 mm 2 mps 730 mmHg 91%

22 May, Saturday

Time Temperature Precipitation Wind Pressure Humidity
00:00 +10°C° 0 mm 2 mps 730 mmHg 91%
01:00 +10°C° 0 mm 2 mps 729 mmHg 91%
02:00 +10°C° 0 mm 2 mps 729 mmHg 91%
03:00 +10°C° 0 mm 2 mps 729 mmHg 90%
04:00 +10°C° 0 mm 2 mps 729 mmHg 90%
05:00 +10°C° 0 mm 2 mps 730 mmHg 90%
06:00 +10°C° 0 mm 2 mps 730 mmHg 91%
07:00 +10°C° 0 mm 2 mps 730 mmHg 91%
08:00 +12°C° 0 mm 3 mps 730 mmHg 80%
09:00 +15°C° 0 mm 4 mps 730 mmHg 69%
10:00 +19°C° 0 mm 5 mps 731 mmHg 58%
11:00 +20°C° 0 mm 5 mps 730 mmHg 54%
12:00 +20°C° 0 mm 5 mps 730 mmHg 50%
13:00 +21°C° 0 mm 5 mps 729 mmHg 46%
14:00 +21°C° 0 mm 5 mps 729 mmHg 49%
15:00 +20°C° 0 mm 5 mps 729 mmHg 53%
16:00 +19°C° 0 mm 4 mps 729 mmHg 56%
17:00 +17°C° 0 mm 4 mps 729 mmHg 66%
18:00 +14°C° 0 mm 3 mps 729 mmHg 75%
19:00 +13°C° 0 mm 2 mps 730 mmHg 85%
20:00 +13°C° 0 mm 2 mps 730 mmHg 87%
21:00 +12°C° 0 mm 2 mps 730 mmHg 89%
22:00 +12°C° 0 mm 2 mps 730 mmHg 91%
23:00 +12°C° 0 mm 1 mps 729 mmHg 92%

23 May, Sunday

Time Temperature Precipitation Wind Pressure Humidity
00:00 +12°C° 0 mm 1 mps 729 mmHg 92%
01:00 +12°C° 0 mm 1 mps 729 mmHg 92%
02:00 +12°C° 0 mm 1 mps 729 mmHg 92%
03:00 +11°C° 0 mm 1 mps 729 mmHg 92%
04:00 +11°C° 0 mm 1 mps 729 mmHg 93%
05:00 +11°C° 0 mm 1 mps 729 mmHg 93%
06:00 +11°C° 0 mm 1 mps 729 mmHg 93%
07:00 +12°C° 0 mm 1 mps 729 mmHg 93%
08:00 +14°C° 0 mm 2 mps 730 mmHg 82%
09:00 +17°C° 0 mm 3 mps 730 mmHg 71%
10:00 +19°C° 0 mm 4 mps 730 mmHg 61%
11:00 +20°C° 0 mm 4 mps 730 mmHg 56%
12:00 +21°C° 0 mm 4 mps 729 mmHg 51%
13:00 +22°C° 0 mm 4 mps 729 mmHg 47%
14:00 +21°C° 0 mm 4 mps 729 mmHg 51%
15:00 +20°C° 0 mm 4 mps 728 mmHg 56%
16:00 +19°C° 0 mm 4 mps 728 mmHg 60%
17:00 +17°C° 0 mm 3 mps 729 mmHg 70%
18:00 +16°C° 0 mm 3 mps 729 mmHg 79%
19:00 +14°C° 0 mm 2 mps 729 mmHg 89%
20:00 +13°C° 0 mm 2 mps 729 mmHg 90%
21:00 +13°C° 0 mm 2 mps 730 mmHg 90%
22:00 +13°C° 0 mm 2 mps 730 mmHg 91%
23:00 +13°C° 0 mm 2 mps 730 mmHg 92%
Show more